Weather in Krasnozorinskiy

Russia / Stavropol Krai     45°21′39″N   41°22′03″E
temp.,
°C
wind,
m/s
gust,
m/s
humid.,
%
clouds,
%
prec.,
mm/h
press.,
hPa
HPBL,
m
14 june, mon
mon1400:00+17s22846 0.0 101211
03:00+15sw22895 0.0 101211
06:00+17se22865 0.0 101275
09:00+22e35705 0.0 1012768
12:00+25e555846 0.0 10111716
15:00+26e4456100 0.1 10111718
18:00+23ene367861 0.4 1010167
21:00+20ene47812 0.4 1010102
15 june, tue
tue1500:00+18ene47825 0.0 1009118
03:00+17ene488386 0.4 1008128
06:00+19se2685100 0.6 1009171
09:00+23e5773100 1.0 1009502
12:00+27se465951 0.0 10081561
15:00+26ese346667 2.3 1009843
18:00+25ese34740 1.3 1009249
21:00+20sse45880 1.4 100969
16 june, wed
wed1600:00+19s23920 0.0 100932
03:00+18se11910 0.0 100811
06:00+20e24880 0.0 1008127
09:00+25ese59650 0.0 1007804
12:00+28ese685828 0.0 10071618
15:00+28ese455983 0.0 10081359
18:00+25wsw228035 0.1 1008101
21:00+21w22930 0.1 100931
17 june, thu
thu1700:00+20nw229546 0.0 100933
03:00+19n1296100 0.0 100815
06:00+20s1192100 0.0 100872
09:00+24wnw1175100 0.0 1009707
12:00+23w548299 2.1 1010434
15:00+20wnw5794100 13.6 1012326
18:00+20wsw4695100 0.3 1013396
21:00+19wsw5997100 0.3 1014288
18 june, fri
fri1800:00+17wsw4998100 0.9 1015296
03:00+17w3799100 0.9 1016358
06:00+17wsw4598100 0.0 1016245
09:00+18w3397100 0.3 1017277
12:00+19nne3391100 0.1 1017428
15:00+23ene346954 0.2 10161110
18:00+22ne587876 0.1 1017452
21:00+20ne4976100 0.1 1017288